This demonstration page uses our WeatherBlox Daily Observations layout. Learn more.

Left ArrowRight Arrow

44.31136, -96.79839

Hourly Observations for November 30, 2021

Temp ( °F °C ) Dew Point ( °F °C ) Humidity (%) Winds ( mph kmh ) Pressure ( in mb ) Visibility ( mi km ) Precip ( " mm )
12:56 am 00:56 Clear 34 1.1 31 -0.6 89 89 N N/A 30.11 1020 10 16 N/A
1:56 am 01:56 Clear 34 1.1 31 -0.6 89 89 N N/A 30.11 1020 10 16 N/A
2:56 am 02:56 Clear 33 0.6 31 -0.6 92 92 N N/A 30.15 1021 10 16 N/A
3:56 am 03:56 Clear 30 -1.1 28 -2.2 92 92 N N/A 30.16 1021 10 16 N/A
4:38 am 04:38 Clear with Mist and Fog 30 -1 28 -2 93 93 NNW 3 6 30.18 1022 2 3 N/A
4:49 am 04:49 Clear with Freezing Fog 28 -2 28 -2 100 100 N N/A 30.19 1022 1 1 N/A
4:56 am 04:56 Clear with Mist and Fog 28 -2.2 27 -2.8 96 96 N N/A 30.18 1022 1 1 N/A
5:07 am 05:07 Clear with Mist and Fog 27 -3 25 -4 93 93 N N/A 30.20 1023 2 3 N/A
5:15 am 05:15 Clear 27 -3 25 -4 93 93 N N/A 30.21 1023 10 16 N/A
5:56 am 05:56 Clear 29 -1.7 28 -2.2 96 96 NNW 5 7 30.22 1023 10 16 N/A
6:56 am 06:56 Clear 28 -2.2 27 -2.8 96 96 N 5 7 30.24 1024 10 16 N/A
7:56 am 07:56 Sunny 28 -2.2 27 -2.8 96 96 N N/A 30.24 1024 9 14 N/A
8:56 am 08:56 Sunny 31 -0.6 29 -1.7 92 92 N N/A 30.24 1024 9 14 N/A
9:56 am 09:56 Sunny 38 3.3 34 1.1 86 86 N N/A 30.24 1024 10 16 N/A
10:56 am 10:56 Sunny 41 5 29 -1.7 62 62 N N/A 30.24 1024 10 16 N/A
11:56 am 11:56 Sunny 45 7.2 26 -3.3 48 48 SSE 3 6 30.21 1023 10 16 N/A
12:56 pm 12:56 Partly Cloudy 46 7.8 26 -3.3 46 46 VRB 6 9 30.18 1022 10 16 N/A
1:56 pm 13:56 Sunny 48 8.9 25 -3.9 41 41 S 7 11 30.15 1021 10 16 N/A
2:56 pm 14:56 Mostly Sunny 49 9.4 24 -4.4 38 38 SSE 7 11 30.11 1020 10 16 N/A
3:56 pm 15:56 Cloudy 48 8.9 25 -3.9 41 41 SE 10 17 30.08 1019 10 16 N/A
4:56 pm 16:56 Cloudy 47 8.3 26 -3.3 44 44 SSE 7 11 30.06 1018 10 16 N/A
5:56 pm 17:56 Cloudy 46 7.8 27 -2.8 47 47 SSE 12 19 30.02 1017 10 16 0.00 0.00
6:56 pm 18:56 Cloudy with Light Rain 43 6.1 30 -1.1 60 60 SSE 12 19 30.00 1016 10 16 0.00 0.00
7:56 pm 19:56 Cloudy with Light Rain 41 5 35 1.7 79 79 SE 9 15 29.96 1015 10 16 0.00 0.00
8:56 pm 20:56 Cloudy with Light Rain 42 5.6 36 2.2 79 79 ESE 8 13 29.93 1013 10 16 0.02 0.51
9:56 pm 21:56 Cloudy with Rain 42 5.6 38 3.3 85 85 SSE 7 11 29.89 1012 6 10 0.02 0.51
10:56 pm 22:56 Mostly Cloudy 40 4.4 39 3.9 97 97 SE 6 9 29.88 1012 10 16 0.04 1.02
11:56 pm 23:56 Mostly Clear 38 3.3 37 2.8 97 97 S 3 6 29.87 1011 10 16 0.01 0.25

Powered by AerisWeather